DIAMANT R/B, 1805

Orbit data source: Space-Track

DIAMANT R/B, 1805 is space debris in LEO originally from a launch on Fri, 26 Nov 1965 UTC launched from the Hamma Guira Space Track Range (HGSTR). Debris objects in space refer to the collection of defunct objects orbiting the Earth. Examples of debris include non-operational satellites, rocket bodies, and fragments generated from explosions, collisions, or faulty payload assembly.

Loading next visibility...
Identifier
1805, 1965-096B
Orbit
LEO
Country
Flag of FRFR
Related business
Manufacturer
Sud
Mission
Spacecraft
Bus & Motor
RUBIS, Unknown motor
Mass
65 kg wet, 65 kg dry
Launch date (UTC)
1965-11-26 (60 years ago)
Launch vehicle
Unknown
Launch site
Hamma Guira Space Track Range (HGSTR)
Object type
Payload
Rocket body
Debris
Shape & HBR
Unknown
Radar Cross Section
Large (>1 m²)

Expand to show TLE details & history
Last TLE update: 1 day ago

TLE from 1 day ago
0 DIAMANT R/B
1 01805U 65096B   26140.43749501  .00000663  00000-0  13434-3 0  9999
2 01805  34.2472 140.9506 0583318 235.4370 118.9908 13.87884184   867
Epoch: 2026-05-20T10:29Z
TLE epoch observation values (Epoch: 2026-05-20T10:29:59.568Z)
Latitude
-0.00002°
Longitude
105.35532°
Altitude
1,159.907 km
Speed
7.163 km/s
True Right ascension
09h 23m 48s
True Declination
0° 00' 00"
Sunlit
Object was in daylight at epoch
Visualization orbit readout
Latitude
Unknown
Longitude
Unknown
Altitude
Unknown
Speed
Unknown
Apparent Right ascension
Unknown
Apparent Declination
Unknown
Sunlit
N/A
Visualization observer readout
Local Sidereal Time
20:18:31
Azimuth
Unknown
Elevation
Unknown
Doppler factor
Unknown
Orbital elements
Apogee altitude
1,366.073 km
Perigee altitude
512.402 km
Semi-major axis
7,317.375 km
Eccentricity
0.05833
Inclination
34.2472°
RAAN
140.9506°
Arg. of periapsis
235.437°
True anomaly
124.62867°
Mean anomaly
118.9908°
Eccentric anomaly
121.83035°
Mean motion
3.46745 °/min
Orbital period
103.82 mins
BSTAR
0.00013434
Loading maneuver chart data...
Computing Atmospheric mass density...
Loading historical data...
Loading historical data...
Loading historical data...
Loading historical data...
Loading historical data...
Loading historical data...
Loading historical data...
Other satellites on launch #96 in the year 1965 (1965-11-26 UTC)

Documentation

Showing up to 5 results
|